カタログに戻る

FENGYUN 1C DEB

運用中SSO
NORAD 30880·DEBRIS·🇨🇳 China

打ち上げ May 10, 1999 から Taiyuan Satellite Launch Center

Loading…

次のパス (今後24時間)

TLE

最新Source: Space-Track

元期: Sep 14, 2026, 03:32 UTC

1 30880U 99025AXS 26257.14780771  .00001662  00000-0  69944-3 0  9991
2 30880  98.7779 334.8478 0020745  29.2027 331.0309 14.27034103  6386

AllMySatでFENGYUN 1C DEBをリアルタイム追跡

Download on the App Store